N2NET Weather Reports


time (UTC)temp
C
wind
direction
speed
KPH
gust
KPH
rain 1hr
cm
rain 24hr
cm
rain mn
cm
humidity
%
barometer
mb
20260510163136 18 44 4.8 11.3 0.00 0.41 0.00 60 1011.9
20260510161556 17 319 6.4 14.5 0.00 0.41 0.00 61 1012.1
20260510160101 17 354 9.7 22.5 0.00 0.41 0.00 63 1012.1
20260510154553 17 287 8.0 20.9 0.00 0.46 0.00 66 1012.1
20260510153101 17 322 9.7 25.7 0.00 0.46 0.00 66 1012.1
20260510151614 17 285 9.7 17.7 0.00 0.46 0.00 66 1012.1
20260510150058 17 304 6.4 11.3 0.00 0.46 0.00 65 1011.8
20260510144601 17 355 3.2 8.0 0.00 0.58 0.00 68 1011.5
20260510143104 17 172 1.6 6.4 0.00 0.58 0.00 69 1011.4
20260510141556 17 207 1.6 6.4 0.00 0.58 0.00 69 1011.3
20260510140051 16 107 0.0 3.2 0.00 0.58 0.00 68 1011.2
20260510134556 16 145 0.0 3.2 0.00 0.71 0.00 28 1011.3
20260510133052 14 0 0.0 0.0 0.00 0.71 0.00 100 1011.4
20260510131556 12 156 0.0 1.6 0.00 0.71 0.00 100 1011.5
20260510130051 11 145 1.6 4.8 0.00 0.71 0.00 100 1011.7
20260510124559 10 312 0.0 1.6 0.00 0.71 0.00 100 1011.7
20260510123055 10 0 0.0 1.6 0.00 0.71 0.00 100 1011.7
20260510121552 8 0 0.0 3.2 0.00 0.71 0.00 100 1011.5
20260510120054 8 0 0.0 1.6 0.00 0.71 0.00 100 1011.5
20260510114555 8 0 0.0 3.2 0.00 0.71 0.00 100 1011.3
20260510113054 7 0 0.0 0.0 0.00 0.71 0.00 100 1011.3
20260510111553 7 0 0.0 0.0 0.00 0.71 0.00 100 1011.2
20260510110052 7 0 0.0 0.0 0.00 0.71 0.00 100 1011.2
20260510104558 7 0 0.0 0.0 0.00 0.74 0.00 100 1011.0
20260510103053 6 0 0.0 0.0 0.00 0.74 0.00 100 1010.9
20260510101554 6 0 0.0 0.0 0.00 0.74 0.00 100 1010.9
20260510100112 6 0 0.0 0.0 0.00 0.74 0.00 100 1010.7
20260510094602 7 0 0.0 0.0 0.00 0.89 0.00 100 1010.5
20260510093100 7 0 0.0 0.0 0.00 0.89 0.00 100 1010.0
20260510091556 7 0 0.0 0.0 0.00 0.89 0.00 100 1010.2
20260510090100 7 0 0.0 0.0 0.00 0.89 0.00 100 1010.3
20260510084609 7 0 0.0 0.0 0.00 1.22 0.00 100 1010.0
20260510083055 7 27 0.0 1.6 0.00 1.22 0.00 100 1009.9
20260510081556 7 0 0.0 0.0 0.00 1.22 0.00 100 1009.7
20260510080057 6 0 0.0 0.0 0.00 1.22 0.00 100 1009.9
20260510074555 6 0 0.0 0.0 0.00 1.57 0.00 100 1010.1
20260510073104 6 0 0.0 0.0 0.00 1.57 0.00 100 1010.1
20260510071552 7 0 0.0 3.2 0.00 1.57 0.00 100 1010.1
20260510070055 7 243 1.6 6.4 0.00 1.57 0.00 100 1010.4
20260510064554 7 321 0.0 1.6 0.00 1.57 0.00 100 1010.8
20260510063054 7 0 0.0 0.0 0.00 1.57 0.00 100 1010.7
20260510061558 7 0 0.0 3.2 0.00 1.57 0.00 100 1010.6
20260510060055 7 0 0.0 0.0 0.00 1.57 0.00 100 1010.1
20260510054549 7 0 0.0 4.8 0.00 1.57 0.00 100 1010.0
20260510053049 6 0 0.0 3.2 0.00 1.57 0.00 100 1010.1
20260510051550 6 0 0.0 0.0 0.00 1.57 0.00 100 1010.3
20260510050053 6 0 0.0 0.0 0.00 1.57 0.00 100 1010.3
20260510044559 6 0 0.0 0.0 0.00 1.57 0.00 100 1010.3
20260510043108 6 0 0.0 0.0 0.00 1.57 0.00 100 1010.1
20260510041551 7 0 0.0 0.0 0.00 1.57 0.00 100 1010.1
20260510040100 7 0 0.0 0.0 0.00 1.57 0.00 100 1010.1
20260510034556 7 0 0.0 0.0 0.00 1.57 1.57 100 1010.2
20260510033132 7 0 0.0 0.0 0.00 1.57 1.57 100 1010.3
20260510031601 7 0 0.0 1.6 0.00 1.57 1.57 100 1010.4
20260510024555 7 0 0.0 0.0 0.00 1.57 1.57 100 1010.1
20260510023052 8 0 0.0 0.0 0.00 1.57 1.57 100 1010.1
20260510021552 8 0 0.0 1.6 0.00 1.57 1.57 100 1009.9
20260510020054 8 0 0.0 0.0 0.00 1.57 1.57 100 1009.8
20260510014553 8 0 0.0 0.0 0.00 1.57 1.57 100 1009.8
20260510013053 8 0 0.0 0.0 0.00 1.57 1.57 100 1009.9
20260510011558 8 0 0.0 0.0 0.00 1.57 1.57 100 1009.8
20260510010050 8 30 0.0 1.6 0.00 1.57 1.57 100 1009.8
20260510004553 8 0 0.0 1.6 0.00 1.57 1.57 100 1009.4
20260510003053 8 0 0.0 0.0 0.00 1.57 1.57 100 1009.4
20260510001550 9 0 0.0 0.0 0.00 1.57 1.57 100 1009.1
20260510000104 9 0 0.0 0.0 0.00 1.57 1.57 100 1009.0
20260509234559 10 0 0.0 0.0 0.00 1.57 1.57 100 1008.8
20260509233051 10 0 0.0 4.8 0.00 1.57 1.57 100 1008.5
20260509231550 11 340 0.0 0.0 0.00 1.57 1.57 100 1008.3
20260509230050 12 0 0.0 0.0 0.00 1.57 1.57 100 1008.5
20260509224552 12 138 1.6 1.6 0.00 1.57 1.57 100 1008.3
20260509223059 12 0 0.0 3.2 0.00 1.57 1.57 100 1008.4
20260509221550 12 0 0.0 0.0 0.00 1.57 1.57 100 1008.6
20260509220049 11 0 0.0 0.0 0.00 1.57 1.57 100 1008.7
20260509214551 11 0 0.0 0.0 0.00 1.57 1.57 100 1008.6
20260509213049 11 0 0.0 1.6 0.00 1.57 1.57 100 1008.7
20260509211550 11 0 0.0 0.0 0.00 1.57 1.57 100 1008.6
20260509210057 10 0 0.0 0.0 0.00 1.57 1.57 100 1008.7
20260509204553 10 0 0.0 0.0 0.00 1.57 1.57 100 1009.0
20260509203049 9 320 3.2 4.8 0.00 1.57 1.57 100 1009.1
20260509201551 9 0 0.0 0.0 0.00 1.57 1.57 100 1009.3
20260509200109 9 0 0.0 4.8 0.00 1.57 1.57 100 1009.6
20260509194557 8 0 0.0 0.0 0.03 1.57 1.57 100 1009.7
20260509193057 8 27 3.2 6.4 0.03 1.57 1.57 100 1010.0
20260509191553 8 99 0.0 4.8 0.08 1.57 1.57 100 1010.1
20260509190101 8 0 0.0 1.6 0.10 1.57 1.57 100 1010.2
20260509184601 8 0 0.0 3.2 0.13 1.55 1.55 100 1010.4
20260509183059 8 125 0.0 3.2 0.15 1.55 1.55 100 1010.4
20260509181621 8 142 1.6 4.8 0.13 1.47 1.47 100 1010.4
20260509180055 8 0 0.0 3.2 0.13 1.47 1.47 100 1010.3
20260509174559 8 132 0.0 4.8 0.10 1.42 1.42 100 1010.1
20260509173103 8 0 0.0 3.2 0.13 1.40 1.40 100 1010.1
20260509171556 8 124 0.0 9.7 0.15 1.37 1.37 100 1010.1
20260509170057 8 149 3.2 9.7 0.18 1.32 1.32 100 1010.3
20260509164557 8 91 0.0 6.4 0.15 1.32 1.32 100 1010.7